Location: Bosmont
(49.7318°N, 3.8587°E)
Time: 11:45:35
(UTC+00:00)

FO-29 - Pass Details

Date: 02 December 2023
Orbit: 799 x 1322 km, 98.6° (Epoch: 29 February)

Event Time Altitude Azimuth Distance (km) Brightness Sun altitude
Rises 03:05:16 0° 14° (NNE) 4,059 13.0 -40.3°
Reaches altitude 10° 03:07:47 10° 14° (NNE) 3,154 12.4 -39.9°
Enters shadow 03:11:18 33° 13° (NNE) 1,981 11.1 -39.3°
